GW6010 Weather Reports


time (UTC)temp
C
wind
direction
speed
KPH
gust
KPH
rain 1hr
cm
rain 24hr
cm
rain mn
cm
humidity
%
barometer
mb
20260510164509 21 270 11.3 25.7 0.00 0.00 0.00 48 1016.7
20260510163015 21 245 12.9 25.7 0.00 0.00 0.00 52 1016.8
20260510161518 21 251 17.7 29.0 0.00 0.00 0.00 50 1017.0
20260510160030 21 278 12.9 27.4 0.00 0.00 0.00 53 1017.0
20260510154509 21 252 11.3 29.0 0.00 0.00 0.00 53 1017.0
20260510153011 20 323 8.0 20.9 0.00 0.00 0.00 53 1017.0
20260510151514 20 278 8.0 25.7 0.00 0.00 0.00 57 1016.9
20260510150019 20 144 9.7 27.4 0.00 0.00 0.00 57 1017.0
20260510144524 20 309 11.3 22.5 0.00 0.00 0.00 55 1016.8
20260510143009 20 17 8.0 24.1 0.00 0.00 0.00 55 1016.7
20260510141517 19 287 4.8 20.9 0.00 0.00 0.00 59 1016.7
20260510140018 18 302 6.4 14.5 0.00 0.00 0.00 59 1016.7
20260510134522 18 308 6.4 16.1 0.00 0.00 0.00 58 1016.7
20260510133026 17 238 3.2 8.0 0.00 0.00 0.00 68 1016.7
20260510131508 14 56 1.6 4.8 0.00 0.00 0.00 78 1016.8
20260510130016 12 113 0.0 0.0 0.00 0.00 0.00 82 1016.8
20260510124520 11 190 0.0 1.6 0.00 0.00 0.00 86 1017.0
20260510123020 10 92 0.0 0.0 0.00 0.00 0.00 91 1017.0
20260510121525 8 92 0.0 0.0 0.00 0.00 0.00 95 1016.8
20260510120011 6 91 0.0 0.0 0.00 0.00 0.00 95 1016.7
20260510114519 5 91 0.0 0.0 0.00 0.00 0.00 96 1016.6
20260510113018 3 91 0.0 0.0 0.00 0.00 0.00 96 1016.6
20260510111521 2 91 0.0 0.0 0.00 0.00 0.00 96 1016.5
20260510110030 2 91 0.0 0.0 0.00 0.00 0.00 96 1016.5
20260510104513 1 90 0.0 0.0 0.00 0.00 0.00 96 1016.2
20260510103017 1 90 0.0 0.0 0.00 0.00 0.00 95 1016.0
20260510101523 1 90 0.0 0.0 0.00 0.00 0.00 95 1015.5
20260510100026 2 90 0.0 0.0 0.00 0.00 0.00 95 1015.4
20260510094529 2 90 0.0 0.0 0.00 0.00 0.00 95 1015.3
20260510093017 2 91 0.0 0.0 0.00 0.00 0.00 95 1015.1
20260510091505 2 91 0.0 0.0 0.00 0.00 0.00 95 1015.0
20260510090005 2 90 0.0 0.0 0.00 0.00 0.00 95 1014.8
20260510084504 2 90 0.0 0.0 0.00 0.00 0.00 95 1014.8
20260510083007 2 90 0.0 0.0 0.00 0.00 0.00 95 1014.8
20260510081523 2 90 0.0 0.0 0.00 0.00 0.00 94 1014.7
20260510080003 2 90 0.0 0.0 0.00 0.00 0.00 95 1014.9
20260510074505 2 90 0.0 0.0 0.00 0.00 0.00 94 1014.8
20260510073006 2 90 0.0 0.0 0.00 0.00 0.00 95 1014.8
20260510071518 2 90 0.0 0.0 0.00 0.00 0.00 94 1014.7
20260510070015 3 91 0.0 0.0 0.00 0.00 0.00 94 1014.5
20260510064520 3 91 0.0 0.0 0.00 0.00 0.00 93 1014.4
20260510063005 3 90 0.0 0.0 0.00 0.00 0.00 95 1014.3
20260510061507 3 91 0.0 1.6 0.00 0.00 0.00 94 1014.3
20260510060012 3 90 0.0 0.0 0.00 0.00 0.00 93 1014.4
20260510054520 3 254 0.0 0.0 0.00 0.00 0.00 93 1014.5
20260510053023 3 254 0.0 0.0 0.00 0.00 0.00 93 1014.3
20260510051506 4 255 0.0 0.0 0.00 0.00 0.00 92 1014.5
20260510050009 4 254 0.0 0.0 0.00 0.00 0.00 93 1014.5
20260510044518 4 254 0.0 0.0 0.00 0.00 0.00 93 1014.5
20260510043022 5 255 0.0 0.0 0.00 0.00 0.00 94 1014.5
20260510041524 5 253 0.0 0.0 0.00 0.00 0.00 91 1014.5
20260510040006 5 253 0.0 0.0 0.00 0.00 0.00 93 1014.5
20260510034512 6 253 0.0 0.0 0.00 0.00 0.00 91 1014.5
20260510033016 6 254 0.0 0.0 0.00 0.00 0.00 91 1014.3
20260510031536 6 254 0.0 0.0 0.00 0.00 0.00 91 1014.3
20260510030025 6 253 0.0 0.0 0.00 0.00 0.00 89 1014.3
20260510024506 7 254 0.0 0.0 0.00 0.00 0.00 89 1014.2
20260510023010 7 253 0.0 0.0 0.00 0.00 0.00 89 1014.1
20260510021516 7 254 0.0 0.0 0.00 0.00 0.00 87 1013.9
20260510020022 8 253 0.0 0.0 0.00 0.00 0.00 86 1013.7
20260510014525 8 254 0.0 0.0 0.00 0.00 0.00 86 1013.2
20260510013010 9 253 0.0 0.0 0.00 0.00 0.00 83 1013.1
20260510011513 10 267 0.0 1.6 0.00 0.00 0.00 81 1012.8
20260510010019 10 267 0.0 0.0 0.00 0.00 0.00 77 1012.5
20260510004524 11 267 0.0 1.6 0.00 0.00 0.00 75 1012.4
20260510003052 12 267 0.0 0.0 0.00 0.00 0.00 71 1012.3
20260510001515 13 267 0.0 0.0 0.00 0.00 0.00 65 1011.9
20260510000015 16 286 1.6 1.6 0.00 0.00 0.00 57 1011.7
20260509234527 17 295 1.6 6.4 0.00 0.00 0.00 53 1011.7
20260509233025 18 266 4.8 11.3 0.00 0.00 0.00 50 1011.5
20260509231532 18 303 8.0 14.5 0.00 0.00 0.00 49 1011.4
20260509230015 18 283 3.2 12.9 0.00 0.00 0.00 48 1011.3
20260509224518 18 300 3.2 9.7 0.00 0.00 0.00 48 1011.5
20260509223024 18 245 6.4 12.9 0.00 0.00 0.00 50 1011.8
20260509221506 18 222 8.0 20.9 0.00 0.00 0.00 48 1011.8
20260509220011 17 289 4.8 17.7 0.00 0.00 0.00 48 1011.7
20260509214518 18 266 8.0 14.5 0.00 0.00 0.00 48 1011.7
20260509213019 18 249 4.8 19.3 0.00 0.00 0.00 48 1011.6
20260509211522 18 304 6.4 19.3 0.00 0.00 0.00 44 1011.5
20260509210013 18 252 9.7 16.1 0.00 0.00 0.00 45 1011.3
20260509204512 18 250 8.0 22.5 0.00 0.00 0.00 45 1011.1
20260509203021 18 219 6.4 17.7 0.00 0.00 0.00 42 1011.0
20260509201521 18 303 9.7 25.7 0.00 0.00 0.00 42 1010.9
20260509200026 18 263 9.7 17.7 0.00 0.00 0.00 43 1010.8
20260509194512 20 265 9.7 19.3 0.00 0.00 0.00 39 1010.7
20260509193014 20 279 6.4 16.1 0.00 0.00 0.00 43 1010.8
20260509191518 19 299 4.8 24.1 0.00 0.00 0.00 46 1010.7
20260509190022 19 243 11.3 22.5 0.00 0.00 0.00 46 1010.8
20260509184528 18 255 12.9 20.9 0.00 0.00 0.00 48 1010.7
20260509183020 18 238 8.0 20.9 0.00 0.00 0.00 49 1010.9
20260509181521 18 304 12.9 22.5 0.00 0.00 0.00 48 1010.8
20260509180022 18 274 6.4 22.5 0.00 0.00 0.00 49 1010.9
20260509174526 18 272 9.7 29.0 0.00 0.00 0.00 50 1010.9
20260509173027 17 255 6.4 19.3 0.00 0.00 0.00 52 1010.9
20260509171513 17 273 8.0 16.1 0.00 0.00 0.00 53 1011.2
20260509170021 17 260 12.9 25.7 0.00 0.00 0.00 55 1011.5